Regional Weather Roundup
Issued by NWS Little Rock, AR

Home | Current Version | Previous Version | Text Only | Print | Product List | Glossary On
Versions: 1 2 3 4 5 6 7 8 9 10 11 12 13 14 15 16 17 18 19 20 21 22 23 24 25 26 27 28 29 30 31 32 33 34 35 36 37 38 39 40 41 42 43 44 45 46 47 48 49 50
000
ASUS44 KLZK 072210
RWRLZK
ARKANSAS STATE WEATHER ROUNDUP
NATIONAL WEATHER SERVICE LITTLE ROCK AR
ISSUED BY NATIONAL WEATHER SERVICE MEMPHIS TN
500 PM CDT TUE JUL 07 2015

NOTE: "FAIR" INDICATES FEW OR NO CLOUDS BELOW 12,000 FEET WITH NO
SIGNIFICANT WEATHER AND/OR OBSTRUCTIONS TO VISIBILITY.

ARZ001-003-010-029-072300-
NORTHWEST ARKANSAS

CITY           SKY/WX    TMP DP  RH WIND       PRES   REMARKS
FORT SMITH     LGT RAIN  76  72  87 SW6       29.98R FOG
HARRISON       CLOUDY    73  71  93 CALM      30.01S
BENTONVILLE    CLOUDY    73  70  88 W5        30.01S
ROGERS         LGT RAIN  73  71  93 W6        30.02S
SILOAM SPGS    CLOUDY    73  68  83 SW3       30.00F
HIGHFILL       LGT RAIN  74  73  97 SW3       30.00S
SPRINGDALE     LGT RAIN  73  72  94 SW7       30.02S
$$

ARZ004-005-016-072300-
NORTH CENTRAL ARKANSAS

CITY           SKY/WX    TMP DP  RH WIND       PRES   REMARKS
BATESVILLE     CLOUDY    77  72  83 CALM      29.99S
FLIPPIN        CLOUDY    73  72  94 CALM      29.97R
MTN HOME       CLOUDY    74  72  93 CALM      29.99S
$$

ARZ040-041-072300-
WEST CENTRAL ARKANSAS

CITY           SKY/WX    TMP DP  RH WIND       PRES   REMARKS
MOUNT IDA      PTSUNNY   84  77  79 CALM      29.97S HX  94
$$

ARZ017-025-026-028-072300-
NORTHEAST ARKANSAS

CITY           SKY/WX    TMP DP  RH WIND       PRES   REMARKS
JONESBORO      CLOUDY    85  75  72 SW9       29.95S THUNDER HX  93
NEWPORT        CLOUDY    86  77  74 VRB7      29.97S HX  97
WALNUT RIDGE   CLOUDY    75  70  83 NW13      29.96F
BLYTHEVILLE    PTSUNNY   88  76  67 SW14G20   29.96F HX  99
$$

ARZ022-033-042-044-072300-
CENTRAL ARKANSAS

CITY           SKY/WX    TMP DP  RH WIND       PRES   REMARKS
LITTLE ROCK    PTSUNNY   91  70  49 S17G24    29.97F HX  96
JACKSONVILLE   MOSUNNY   91  73  55 S15       29.97S HX  99
SEARCY         MOSUNNY   91  75  59 SW10G22   29.97F HX 101
HOT SPRINGS    PTSUNNY   89  72  56 S8        29.98S HX  96
RUSSELLVILLE   CLOUDY    77  74  90 CALM      29.98S
$$

ARZ036-072300-
EAST ARKANSAS

CITY           SKY/WX    TMP DP  RH WIND       PRES   REMARKS
WEST MEMPHIS   PTSUNNY   87  77  72 S14       29.98F HX  99
$$

ARZ050-070-073-072300-
SOUTHWEST ARKANSAS

CITY           SKY/WX    TMP DP  RH WIND       PRES   REMARKS
TEXARKANA      PTSUNNY   89  74  60 S7        29.97S HX  98
EL DORADO      MOSUNNY   90  73  57 S12       29.99F HX  98
DEQUEEN        PTSUNNY   90  77  65 S7        29.93F HX 103
$$

ARZ056-057-069-072300-
SOUTHEAST ARKANSAS

CITY           SKY/WX    TMP DP  RH WIND       PRES   REMARKS
PINE BLUFF     MOSUNNY   90  74  59 S13       29.99F HX  99
STUTTGART      MOSUNNY  N/A N/A N/A MISG      29.97F
MONTICELLO     MOSUNNY   92  72  51 SW10G20   30.00F HX  99
$$




USA.gov is the U.S. government's official web portal to all federal, state and local government web resources and services.